sat.trackr.live / text

‹ back to catalog

STARLINK-5558

NORAD 55631 · 2023-021D

PAYLOAD ACTIVE UNKNOWN

§ Identity

Operator
Country
US
Launch date
2023-02-17
Launch site
AFWTR
Launch vehicle
Mass (kg)
RCS (m²)

Purposes: comms

External: N2YO · Heavens-Above · Gunter

§ Orbital elements

Epoch: 2026-09-20T22:00:03.000096Z

Period
95.63 min
Inclination
70.0016°
Eccentricity
0.0002476
Mean motion
15.05734616 rev/d
Perigee alt
547.5 km
Apogee alt
551.0 km
Semi-major
6,927.4 km
B*
5.5837e-3
RAAN
72.0577°
Arg perigee
294.2405°
Mean anomaly
132.2357°
Rev number
576

§ Raw data

STARLINK-55581 55631U 23021D   26263.91670139  .00081815  00000+0  55837-2 0  99952 55631  70.0016  72.0577 0002476 294.2405 132.2357 15.05734616  5768

JSON: /api/v1/satellites/55631 · /tle

For live sub-satellite position, see the globe view (requires WebGL).

§ Visibility from observer

Set your observer location to see the next 7 days of passes ≥ 10°. The values pass through the URL so the page stays shareable.

No JS? Fill the form by hand. The geolocation button needs JavaScript.